User: anonymous   Login
Location: Fort Wayne
(41.1310°N, 85.1290°W)
Time: 13:11:02
(UTC-04:00)
Language:

Cosmos 2056 Rocket - Orbit

View from above orbital plane
View from above orbital plane
View from above satellite
View from above satellite

Ground track
Ground track

The orbit data is extracted from the following two-line orbital elements,

1 20433U 90004B   14304.48285502  .00000270  00000-0  10161-3 0  8597
2 20433 074.0356 317.7107 0042252 319.8298 147.4866 14.35698048297451
Epoch (UTC): 31 October 2014 11:35:18
Eccentricity: 0.0042252
inclination: 74.0356°
perigee height: 742 km
apogee height: 803 km
right ascension of ascending node: 317.7107°
argument of perigee: 319.8298°
revolutions per day: 14.35698048
mean anomaly at epoch: 147.4866°
orbit number at epoch: 29745

The dashed part of the orbit path shows where the satellite is in the earth's shadow,  

DLR